Eastsound, WA

7:11 PM PDT on July 20, 2017 (GMT -0700)
Orcas Island

Weather History for KORS - November, 2012

Change the Weather History Date:

Monday, November 12, 2012

  Actual Average (KFHR) Record (KFHR)
Temperature  
Mean Temperature 46 °F -  
Max Temperature 50 °F 48 °F 57 °F (2016)
Min Temperature 42 °F 38 °F 28 °F (1997)
Degree Days  
Heating Degree Days 19    
Moisture  
Dew Point 45 °F    
Average Humidity 92    
Maximum Humidity 93    
Minimum Humidity 87    
Precipitation  
Precipitation 0.00 in - - ()
Sea Level Pressure  
Sea Level Pressure 30.10 in    
Wind  
Wind Speed 7 mph (South)    
Max Wind Speed 13 mph    
Max Gust Speed 16 mph    
Visibility 9 miles    
Events Rain    
Averages and records for this station are not official NWS values.
T = Trace of Precipitation, MM = Missing Value Source: NWS Daily Summary

Daily Weather History Graph

Daily Weather History Graph

Search for Another Location

Airport or City:

Trip Planner

Search our weather history database for the weather conditions in past years. The results will help you decide how hot, cold, wet, or windy it might be!

Date:

Astronomy

Nov. 12, 2012 Rise Set
Actual Time 7:16 AM PST 4:34 PM PST
Civil Twilight 6:42 AM PST 5:08 PM PST
Nautical Twilight 6:04 AM PST 5:46 PM PST
Astronomical Twilight 5:27 AM PST 6:23 PM PST
Moon 5:44 AM PST (11/12) 3:45 PM PST (11/12)
Length of Visible Light 10h 26m
Length of Day
9h 18m
Waning Crescent, 2% of the Moon is Illuminated
Nov 12
Waning Crescent
Nov 13
New
Nov 20
First Quarter
Nov 28
Full
Dec 6
Last Quarter

Hourly Weather History & Observations

Time (PST) Temp. Windchill Dew Point Humidity Pressure Visibility Wind Dir Wind Speed Gust Speed Precip Events Conditions
12:15 AM 46.4 °F 44.3 °F 42.8 °F 87% 30.03 in 10.0 mi SE 4.6 mph - N/A Rain Light Rain
12:35 AM 46.4 °F 43.5 °F 42.8 °F 87% 30.03 in 8.0 mi SE 5.8 mph - N/A Rain Light Rain
12:55 AM 46.4 °F 45.2 °F 42.8 °F 87% 30.03 in 10.0 mi East 3.5 mph - N/A Rain Light Rain
1:35 AM 42.8 °F 39.3 °F 41.0 °F 93% 30.03 in 7.0 mi SE 5.8 mph - N/A Rain Light Rain
1:55 AM 42.8 °F 39.3 °F 41.0 °F 93% 30.04 in 5.0 mi ENE 5.8 mph - N/A Rain Light Rain
2:15 AM 42.8 °F - 41.0 °F 93% 30.04 in 6.0 mi Calm Calm - N/A   Overcast
2:35 AM 42.8 °F 41.1 °F 41.0 °F 93% 30.04 in 5.0 mi ESE 3.5 mph - N/A   Overcast
2:55 AM 44.6 °F 43.1 °F 42.8 °F 93% 30.04 in 10.0 mi ESE 3.5 mph - N/A   Overcast
3:15 AM 46.4 °F 44.3 °F 44.6 °F 93% 30.03 in 5.0 mi SSE 4.6 mph - N/A   Overcast
3:35 AM 46.4 °F 42.9 °F 44.6 °F 93% 30.03 in 6.0 mi SE 6.9 mph - N/A   Overcast
4:15 AM 46.4 °F 43.5 °F 44.6 °F 93% 30.03 in 6.0 mi SSE 5.8 mph - N/A Rain Light Rain
4:35 AM 46.4 °F 44.3 °F 44.6 °F 93% 30.04 in 10.0 mi South 4.6 mph - N/A Rain Light Rain
4:55 AM 46.4 °F 42.9 °F 44.6 °F 93% 30.04 in 5.0 mi SSE 6.9 mph - N/A Rain Light Rain
5:15 AM 46.4 °F 44.3 °F 44.6 °F 93% 30.04 in 5.0 mi South 4.6 mph - N/A Rain Light Rain
5:35 AM 46.4 °F 42.9 °F 44.6 °F 93% 30.04 in 8.0 mi South 6.9 mph - N/A   Overcast
5:55 AM 46.4 °F 44.3 °F 44.6 °F 93% 30.05 in 10.0 mi South 4.6 mph - N/A   Overcast
6:15 AM 46.4 °F 44.3 °F 44.6 °F 93% 30.05 in 10.0 mi SSE 4.6 mph - N/A   Overcast
6:55 AM 46.4 °F - 44.6 °F 93% 30.06 in 10.0 mi Calm Calm - N/A   Overcast
7:15 AM 46.4 °F 44.3 °F 44.6 °F 93% 30.06 in 10.0 mi SSE 4.6 mph - N/A   Overcast
7:35 AM 46.4 °F 42.9 °F 44.6 °F 93% 30.06 in 10.0 mi South 6.9 mph - N/A   Overcast
7:55 AM 46.4 °F 44.3 °F 44.6 °F 93% 30.07 in 10.0 mi South 4.6 mph - N/A   Overcast
8:15 AM 46.4 °F 42.9 °F 44.6 °F 93% 30.07 in 10.0 mi South 6.9 mph - N/A   Overcast
8:55 AM 48.2 °F - 44.6 °F 87% 30.09 in 10.0 mi South 9.2 mph - N/A   Overcast
9:15 AM 46.4 °F 42.9 °F 44.6 °F 93% 30.10 in 10.0 mi South 6.9 mph - N/A   Overcast
9:55 AM 48.2 °F - 46.4 °F 93% 30.10 in 9.0 mi South 6.9 mph - N/A   Overcast
10:15 AM 48.2 °F - 44.6 °F 87% 30.11 in 10.0 mi South 8.1 mph - N/A   Overcast
10:35 AM 48.2 °F - 46.4 °F 93% 30.11 in 10.0 mi South 8.1 mph - N/A   Overcast
10:55 AM 48.2 °F - 46.4 °F 93% 30.11 in 10.0 mi SSW 10.4 mph - N/A   Overcast
11:15 AM 48.2 °F - 46.4 °F 93% 30.12 in 10.0 mi South 9.2 mph - N/A   Overcast
11:35 AM 48.2 °F - 46.4 °F 93% 30.12 in 10.0 mi South 8.1 mph - N/A   Overcast
11:55 AM 48.2 °F - 46.4 °F 93% 30.12 in 10.0 mi South 9.2 mph - N/A   Overcast
12:15 PM 48.2 °F - 46.4 °F 93% 30.12 in 10.0 mi SSW 10.4 mph - N/A   Mostly Cloudy
12:35 PM 48.2 °F - 46.4 °F 93% 30.12 in 10.0 mi South 9.2 mph - N/A   Partly Cloudy
12:55 PM 48.2 °F - 46.4 °F 93% 30.12 in 10.0 mi South 10.4 mph - N/A   Partly Cloudy
1:15 PM 48.2 °F - 46.4 °F 93% 30.12 in 10.0 mi South 9.2 mph - N/A   Partly Cloudy
1:55 PM 48.2 °F - 46.4 °F 93% 30.12 in 10.0 mi SSW 11.5 mph - N/A   Partly Cloudy
2:15 PM 48.2 °F - 46.4 °F 93% 30.11 in 10.0 mi SSW 11.5 mph - N/A   Scattered Clouds
2:35 PM 50.0 °F - 46.4 °F 87% 30.11 in 10.0 mi South 10.4 mph - N/A   Mostly Cloudy
2:55 PM 48.2 °F - 46.4 °F 93% 30.12 in 10.0 mi SSW 11.5 mph - N/A   Mostly Cloudy
3:15 PM 48.2 °F - 46.4 °F 93% 30.12 in 10.0 mi SSW 11.5 mph - N/A   Mostly Cloudy
3:35 PM 48.2 °F - 46.4 °F 93% 30.12 in 10.0 mi South 9.2 mph - N/A   Scattered Clouds
3:55 PM 48.2 °F - 46.4 °F 93% 30.13 in 10.0 mi South 10.4 mph - N/A   Scattered Clouds
4:15 PM 48.2 °F - 46.4 °F 93% 30.12 in 10.0 mi SSW 10.4 mph - N/A   Mostly Cloudy
4:35 PM 48.2 °F - 44.6 °F 87% 30.13 in 10.0 mi SSW 12.7 mph 16.1 mph N/A   Scattered Clouds
4:55 PM 48.2 °F - 44.6 °F 87% 30.13 in 10.0 mi South 9.2 mph - N/A   Scattered Clouds
5:15 PM 48.2 °F - 46.4 °F 93% 30.13 in 10.0 mi South 8.1 mph - N/A   Scattered Clouds
5:35 PM 48.2 °F - 46.4 °F 93% 30.13 in 10.0 mi SSW 10.4 mph 16.1 mph N/A   Mostly Cloudy
5:55 PM 46.4 °F 41.9 °F 44.6 °F 93% 30.13 in 10.0 mi SSW 9.2 mph - N/A   Scattered Clouds
6:15 PM 46.4 °F 43.5 °F 44.6 °F 93% 30.14 in 10.0 mi South 5.8 mph - N/A   Clear
6:35 PM 48.2 °F - 44.6 °F 87% 30.14 in 10.0 mi SSW 8.1 mph - N/A   Partly Cloudy
6:55 PM 48.2 °F - 44.6 °F 87% 30.14 in 10.0 mi South 8.1 mph - N/A   Partly Cloudy
7:15 PM 48.2 °F - 44.6 °F 87% 30.14 in 10.0 mi South 5.8 mph - N/A   Partly Cloudy
7:35 PM 48.2 °F - 44.6 °F 87% 30.14 in 10.0 mi SSW 9.2 mph - N/A   Scattered Clouds
7:55 PM 48.2 °F - 46.4 °F 93% 30.14 in 10.0 mi South 10.4 mph 16.1 mph N/A   Overcast
8:15 PM 48.2 °F - 46.4 °F 93% 30.14 in 10.0 mi South 8.1 mph - N/A   Mostly Cloudy
8:35 PM 48.2 °F - 46.4 °F 93% 30.14 in 10.0 mi South 8.1 mph - N/A   Mostly Cloudy
8:55 PM 48.2 °F - 46.4 °F 93% 30.14 in 10.0 mi South 9.2 mph - N/A   Mostly Cloudy
9:15 PM 48.2 °F - 46.4 °F 93% 30.14 in 10.0 mi South 5.8 mph - N/A   Scattered Clouds
9:35 PM 48.2 °F - 46.4 °F 93% 30.14 in 10.0 mi South 9.2 mph - N/A Rain Light Rain
9:55 PM 48.2 °F - 46.4 °F 93% 30.15 in 10.0 mi SSW 11.5 mph - N/A Rain Light Rain
10:15 PM 48.2 °F - 46.4 °F 93% 30.16 in 5.0 mi SSW 10.4 mph - N/A Rain Light Rain
10:35 PM 48.2 °F - 46.4 °F 93% 30.16 in 4.0 mi South 3.5 mph - N/A Rain Light Rain
10:55 PM 48.2 °F - 46.4 °F 93% 30.16 in 10.0 mi South 6.9 mph - N/A   Scattered Clouds
11:35 PM 48.2 °F - 46.4 °F 93% 30.16 in 10.0 mi South 6.9 mph - N/A   Scattered Clouds
11:55 PM 48.2 °F - 46.4 °F 93% 30.16 in 10.0 mi South 6.9 mph - N/A   Scattered Clouds